COSMOS 2251 DEB, 37095

Orbit data source: Space-Track

COSMOS 2251 DEB, 37095 is space debris in LEO originally from a launch on Wed, 16 Jun 1993 UTC launched from the Plesetsk Missile And Space Complex (PKMTR). The debris from Iridium 33, an American commercial communications satellite, has been tracked extensively since its accidental collision with the defunct Russian satellite Cosmos 2251 in 2009. This event, occurring at high speed in low Earth orbit (LEO), generated thousands of pieces of space debris, significantly increasing the risk of further collisions. The Iridium 33 debris cloud has impacted space traffic management and orbital debris mitigation strategies, making it a subject of ongoing study in space situational awareness.

Loading next visibility...
Identifier
37095, 1993-036BFR
Orbit
LEO
Country
Flag of CISCIS
Related business
Manufacturer
Unknown
Mission
Spacecraft
Bus & Motor
Unknown
Mass
Unknown
Launch date (UTC)
1993-06-16 (33 years ago)
Launch vehicle
Unknown
Launch site
Plesetsk Missile And Space Complex (PKMTR)
Object type
Payload
Rocket body
Debris
Shape & HBR
Unknown shape, 0.1 m
Radar Cross Section
Small (<0.1 m²)

Expand to show TLE details & history
Last TLE update: 5 days ago

TLE from 5 days ago
0 COSMOS 2251 DEB
1 37095U 93036BFR 26203.22369091  .00001486  00000-0  80578-3 0  9990
2 37095  73.8454 159.4357 0192430 178.2897 181.8942 14.04311466657441
Epoch: 2026-07-22T05:22Z
TLE epoch observation values (Epoch: 2026-07-22T05:22:06.894Z)
Latitude
0.00005°
Longitude
138.92488°
Altitude
1,021.063 km
Speed
7.27 km/s
True Right ascension
10h 37m 44s
True Declination
0° 00' 00"
Sunlit
Object was in daylight at epoch
Visualization orbit readout
Latitude
Unknown
Longitude
Unknown
Altitude
Unknown
Speed
Unknown
Apparent Right ascension
Unknown
Apparent Declination
Unknown
Sunlit
N/A
Visualization observer readout
Local Sidereal Time
20:30:16
Azimuth
Unknown
Elevation
Unknown
Doppler factor
Unknown
Orbital elements
Apogee altitude
1,016.18 km
Perigee altitude
736.975 km
Semi-major axis
7,254.715 km
Eccentricity
0.01924
Inclination
73.8454°
RAAN
159.4357°
Arg. of periapsis
178.2897°
True anomaly
181.82303°
Mean anomaly
181.8942°
Eccentric anomaly
181.85844°
Mean motion
3.51247 °/min
Orbital period
102.49 mins
BSTAR
0.00080578
Loading maneuver chart data...
Computing Atmospheric mass density...

Documentation

Showing up to 5 results
|